Regional Weather Roundup
Issued by NWS

Home | Current Version | Previous Version | Graphics & Text | Print | Product List | Glossary On
Versions: 1 2 3 4 5 6 7 8 9 10 11 12 13 14 15 16 17 18 19 20 21 22 23 24 25 26 27 28 29 30 31 32 33 34 35 36 37 38 39 40 41 42 43 44 45 46 47 48 49 50
000
ASUS45 KPSR 272110
RWRAZ

ARIZONA HOURLY REGIONAL WEATHER ROUNDUP
NATIONAL WEATHER SERVICE PHOENIX AZ
200 PM MST SAT AUG 27 2016

NOTE: FAIR INDICATES FEW OR NO CLOUDS BELOW 12,000 FEET WITH NO
SIGNIFICANT WEATHER AND/OR OBSTRUCTIONS TO VISIBILITY.

AZZ001>003-036-272200-
NORTHWEST ARIZONA

CITY           SKY/WX    TMP DP  RH WIND       PRES   REMARKS
BULLHEAD CITY  MOSUNNY   88  55  33 N6        29.91F
KINGMAN        CLOUDY    71  55  56 SE10      30.09S
$$

AZZ004>008-015-016-018-272200-
NORTH CENTRAL ARIZONA

CITY           SKY/WX    TMP DP  RH WIND       PRES   REMARKS
GRAND CANYON   CLOUDY    61  50  67 SW7       30.25F
PRESCOTT       MOSUNNY   74  52  46 VRB3      30.16F
FLAGSTAFF      MOSUNNY   64  45  49 W10       30.27S
PAYSON         SUNNY     73  48  40 VRB5      30.20F
PAGE           CLOUDY    69  52  54 NW8       30.15F
$$

AZZ009>014-017-272200-
NORTHEAST ARIZONA

CITY           SKY/WX    TMP DP  RH WIND       PRES   REMARKS
WINSLOW        SUNNY     72  57  59 SE12      30.17F
SAINT JOHNS    CLOUDY    60  52  74 CALM      30.26F
SHOW LOW       MOSUNNY   59  50  72 NE3       30.28F
$$

AZZ023-272200-
GREATER PHOENIX AREA

CITY           SKY/WX    TMP DP  RH WIND       PRES   REMARKS
PHOENIX        MOSUNNY   94  52  24 VRB3      29.89F
BUCKEYE        SUNNY     93  45  18 CALM      29.91F
GLENDALE       MOSUNNY   97  48  19 N3        29.91F
LUKE AFB       SUNNY     93  50  22 W12       29.89F
DEER VALLEY    SUNNY     92  49  22 VRB3      29.92F
SCOTTSDALE     MOSUNNY   93  45  19 SW8       29.93F
MESA-FALCON    MOSUNNY  N/A N/A N/A W8        29.90F
MESA-GATEWAY   MOSUNNY   93  46  20 NW7       29.92F
CHANDLER       MOSUNNY   93  45  18 W7        29.91F
$$

AZZ027-028-272200-
SOUTHWEST MARICOPA COUNTY AND PINAL COUNTY

CITY           SKY/WX    TMP DP  RH WIND       PRES   REMARKS
CASA GRANDE    SUNNY     95  41  15 N5        29.92F
GILA BEND      FAIR      96  39  14 E5        29.85F
$$

AZZ503-504-507>509-272200-
SOUTHEAST ARIZONA

CITY           SKY/WX    TMP DP  RH WIND       PRES   REMARKS
TUCSON         SUNNY     93  33  12 S9G18     29.99F
DAVIS-MONTHAN  SUNNY     92  36  13 S9        29.97F
RYAN FIELD     SUNNY     93  36  13 S6        29.98F
NOGALES        MOSUNNY   89  40  17 S13       30.07F
SIERRA VISTA   SUNNY     84  37  18 W15       30.12F
DOUGLAS        PTSUNNY   87  47  24 CALM      30.07F
SAFFORD        SUNNY     89  50  26 NW16      29.99F
$$

AZZ020-021-025-026-031-272200-
SOUTHWEST ARIZONA

CITY           SKY/WX    TMP DP  RH WIND       PRES   REMARKS
YUMA           SUNNY     98  57  25 VRB6      29.82F
$$

CAZ031-033-041-043-047-048-061-272200-
SOUTHERN CALIFORNIA

CITY           SKY/WX    TMP DP  RH WIND       PRES   REMARKS
DOWNTOWN L.A.  SUNNY     77  59  53 VRB6      29.96F
L.A. AIRPORT   SUNNY     73  56  54 W13       29.98F
SAN DIEGO      MOSUNNY   75  57  53 W14       29.98F
BURBANK        SUNNY     76  57  51 VRB7      29.97F
ONTARIO        MOSUNNY   79  54  41 W8        29.96F
RIVERSIDE      SUNNY     79  54  41 VRB6      29.96F
PALM SPRINGS   SUNNY     98  56  24 SE12G17   29.86F
EL CENTRO NAS  MOSUNNY  101  52  19 NE13      29.83F
IMPERIAL       MOSUNNY  101  59  24 E12G18    29.81F HX 101
BLYTHE         SUNNY     97  56  25 NE14G22   29.86F
NEEDLES        MOSUNNY   87  61  41 MISG      29.93F
$$

NVZ020-UTZ003-272200-
SOUTHERN NEVADA-UTAH

CITY           SKY/WX    TMP DP  RH WIND       PRES   REMARKS
LAS VEGAS      MOSUNNY   86  47  25 NE7       29.97F
SALT LAKE CITY MOSUNNY   88  24  10 NW14G21   30.02F
$$

NMZ009-TXZ055-272200-
NEW MEXICO-WEST TEXAS

CITY           SKY/WX    TMP DP  RH WIND       PRES   REMARKS
ALBUQUERQUE    PTSUNNY   83  41  22 VRB6      30.10F
EL PASO        MOSUNNY   88  55  32 CALM      30.01F
$$


........................KEY........................
SKY/WX - SKY CONDITION/WEATHER
TMP    - TEMPERATURE IN FAHRENHEIT
DP     - DEW POINT IN FAHRENHEIT
RH     - RELATIVE HUMIDITY IN PERCENT
WIND   - DIRECTION AND SPEED IN MILES PER HOUR (MPH)
VRB    - VARIABLE WIND DIRECTION
PRES   - MEAN SEA LEVEL PRESSURE IN INCHES OF MERCURY
         F - FALLING PRESSURE   R - RISING PRESSURE
         S - STEADY PRESSURE
VSB    - VISIBILITY IN MILES
HX     - HEAT INDEX IN FAHRENHEIT
WCI    - WIND CHILL INDEX IN FAHRENHEIT
TC     - TEMPERATURE IN CELSIUS WHICH IS ALSO KNOWN AS
         TEMPERATURE IN CENTIGRADE
AFB    - AIR FORCE BASE
         LUKE AFB IS LUKE AIR FORCE BASE
         DAVIS-MONTHAN IS DAVIS-MONTHAN AIR FORCE BASE
NAS    - NAVAL AIR STATION
         EL CENTRO NAS IS EL CENTRO NAVAL AIR STATION
N/A    - NOT AVAILABLE




USA.gov is the U.S. government's official web portal to all federal, state and local government web resources and services.